Find Starlink 33707

NORAD ID: 63401 Int'l Des: 2025-065 Owner: SPXS Country: US Constellation: starlink operational
LEOCIRCULAR

Current View

Loading 3D Globe...

About Starlink 33707

Starlink 33707 (NORAD 63401) is a starlink constellation satellite (v2 mini) launched Mar 31, 2025 by SPXS of US. It operates in LEO, CIRCULAR orbit with a mass of 575.00 kg.

About Starlink 33707

Description loading...

Upcoming Passes

Passes for default location (London). Set your location on the main map for personalized predictions.

Altitude History

Loading altitude history...

Two-Line Element Set

1 63401U 25065C 26167.96052499 .00014949 00000-0 55141-3 0 9994
2 63401 42.9966 266.3259 0003360 275.7546 84.2922 15.27590970 68021
Epoch: Jun 16, 2026 • Age: 31 hours

Current Status

Altitude 491.0 km
Velocity 7.62 km/s
Sub-Earth Point -33.92°S, 130.04°E
Launch Date Mar 31, 2025
Age 1.2 years
Type internet

Technical Details

Classification Payload
Mass 575.00 kg
Dry Mass 530.00 kg
Total Mass 575.00 kg
Length 0.30 m
Diameter 4.10 m
Span 29.00 m
Shape Box + pan
Manufacturer SPXS
Bus Type Starlink V2MO
Phase Status In Orbit
Owner/State SPXS/US

Most Searched